Location: Newark
(37.8333°N, 119.5000°W)
Time: 06:41:00
(UTC+00:00)

Vanguard 1 Rocket - All Passes

Search period start: 25 August 2019 00:00
Search period end: 04 September 2019 00:00
Orbit: 652 x 4224 km, 34.3° (Epoch: 24 August)

Date Brightness Start Highest point End Pass type
(mag) Time Alt. Az. Time Alt. Az. Time Alt. Az.
25 Aug - 08:31:46 10° SW 08:35:45 26° SSE 08:39:30 10° E night (unlit)
25 Aug - 10:55:41 10° WSW 11:00:02 59° S 11:05:57 10° E visible
25 Aug - 13:19:41 10° W 13:24:58 46° SSW 13:34:05 10° SE daylight
25 Aug - 15:44:57 10° WSW 15:51:18 23° SSW 16:01:06 10° SSE daylight
26 Aug - 07:21:31 10° SSW 07:24:58 17° SSE 07:27:55 10° ESE night (unlit)
26 Aug - 09:45:03 10° WSW 09:49:20 49° S 09:54:04 10° E visible
26 Aug - 12:09:14 10° W 12:13:53 54° S 12:21:10 10° ESE visible
26 Aug - 14:33:40 10° WSW 14:39:24 29° SSW 14:48:49 10° SE daylight
26 Aug - 17:04:51 10° SW 17:06:43 10° SSW 17:08:43 10° SSW daylight
27 Aug - 06:12:37 10° SSE 06:13:52 11° SSE 06:15:03 10° SE night (unlit)
27 Aug - 08:34:13 10° SW 08:38:41 35° SSE 08:42:43 10° E night (unlit)
27 Aug - 10:58:43 10° W 11:03:02 58° S 11:08:48 10° ESE visible
27 Aug - 13:22:55 10° W 13:27:58 37° SSW 13:36:13 10° SE daylight
27 Aug - 15:49:27 10° WSW 15:54:20 16° SSW 16:00:57 10° S daylight
28 Aug - 07:23:16 10° SSW 07:27:55 24° SSE 07:31:36 10° ESE night (unlit)
28 Aug - 09:47:57 10° WSW 09:52:19 55° S 09:57:03 10° E visible
28 Aug - 12:12:22 10° W 12:16:53 45° SSW 12:23:43 10° ESE visible
28 Aug - 14:37:25 10° WSW 14:42:27 21° SSW 14:49:53 10° SSE daylight
29 Aug - 06:12:31 10° SSW 06:16:53 17° SSE 06:20:15 10° ESE night (unlit)
29 Aug - 08:36:51 10° WSW 08:41:39 44° SSE 08:45:51 10° E night (unlit)
29 Aug - 11:01:46 10° W 11:06:03 54° S 11:11:36 10° ESE visible
29 Aug - 13:26:19 10° WSW 13:30:59 28° SSW 13:38:03 10° SE daylight
30 Aug - 05:02:47 10° S 05:05:30 12° SSE 05:07:50 10° SE visible
30 Aug - 07:25:27 10° SW 07:30:53 33° SSE 07:34:58 10° E night (unlit)
30 Aug - 09:50:54 10° WSW 09:55:20 57° S 10:00:00 10° E visible
30 Aug - 12:15:35 10° W 12:19:53 36° SSW 12:26:06 10° SE visible
30 Aug - 14:41:54 10° SW 14:45:30 14° SSW 14:50:07 10° S daylight
31 Aug - 06:13:55 10° SSW 06:19:53 25° SSE 06:24:05 10° ESE visible
31 Aug - 08:39:37 10° WSW 08:44:39 52° S 08:48:55 10° E night (unlit)
31 Aug - 11:04:51 10° W 11:09:03 46° S 11:14:19 10° ESE visible
31 Aug - 13:30:01 10° WSW 13:34:00 20° SSW 13:39:30 10° SSE daylight
01 Sep - 05:02:34 10° SSW 05:08:33 18° SSE 05:12:50 10° ESE visible
01 Sep - 07:27:52 10° WSW 07:33:53 42° SSE 07:38:10 10° E night (unlit)
01 Sep - 09:53:53 10° W 09:58:21 55° S 10:02:55 10° ESE visible
01 Sep - 12:18:54 10° WSW 12:22:53 27° SSW 12:28:15 10° SE visible
02 Sep - 03:52:14 10° S 03:56:49 13° SSE 04:00:27 10° SE visible
02 Sep - 06:15:47 10° SW 06:22:55 33° SSE 06:27:32 10° E visible
02 Sep - 08:42:27 10° WSW 08:47:39 57° S 08:51:57 10° E night (unlit)
02 Sep - 11:08:00 10° W 11:12:02 36° SSW 11:16:55 10° SE visible
02 Sep - 13:34:31 10° SW 13:37:02 13° SSW 13:40:03 10° S daylight
03 Sep - 05:03:37 10° SSW 05:11:36 26° SSE 05:16:43 10° ESE visible
03 Sep - 07:30:27 10° WSW 07:36:53 51° S 07:41:18 10° E night (unlit)
03 Sep - 09:56:54 10° W 10:01:22 49° S 10:05:48 10° ESE visible
03 Sep - 12:22:32 10° WSW 12:25:52 19° SSW 12:30:02 10° SSE visible
